Regional Weather Roundup
Issued by NWS Upton, NY

Current Version | Previous Version | Graphics & Text | Print | Product List | Glossary Off
Versions: 1 2 3 4 5 6 7 8 9 10 11 12 13 14 15 16 17 18 19 20 21 22 23 24 25 26 27 28 29 30 31 32 33 34 35 36 37 38 39 40 41 42 43 44 45 46 47

000
ASUS41 KOKX 240805
RWROKX

REGIONAL WEATHER ROUNDUP
NATIONAL WEATHER SERVICE NEW YORK NY
300 AM EST WED DEC 24 2014

NOTE: "FAIR" INDICATES FEW OR NO CLOUDS BELOW 12,000 FEET WITH NO
SIGNIFICANT WEATHER AND/OR OBSTRUCTIONS TO VISIBILITY.

NYZ071-072-176-178-NJZ106-104-240900-
NEW YORK CITY METRO AREA


CITY           SKY/WX    TMP DP  RH WIND       PRES   REMARKS
CENTRAL PARK   CLOUDY    45  43  93 E8        30.07F FOG
LAGUARDIA APRT DRZL/FOG  44  43  96 NE8       30.05F VSB 1
KENNEDY INTL   FOG       47  44  90 NE7       30.05F VSB 1
NEWARK/LIBERTY FOG       45  45 100 N6        30.05F VSB 3/4
BRNX BOT. GARD   N/A     45  43  93 SE2       30.08R
TETERBORO      DRZL/FOG  45  45 100 CALM      30.05F VSB 1/2
$$

NYZ177-179-078>081-240900-
LONG ISLAND NEW YORK

CITY           SKY/WX    TMP DP  RH WIND       PRES   REMARKS
FARMINGDALE    CLOUDY    45  44  97 E5        30.05F FOG
ISLIP          CLOUDY    46  45  96 VRB3      30.04F FOG
SHIRLEY        CLOUDY    47  45  93 VRB3      30.05F FOG
WESTHAMPTON    CLOUDY    47  46  97 NE8       30.06F FOG
MONTAUK POINT    N/A     48  47  96 VRB3      30.08R
$$

NYZ052-065-067-240900-
HUDSON VALLEY

CITY           SKY/WX    TMP DP  RH WIND       PRES   REMARKS
WHITE PLAINS   DRZL/FOG  45  44  97 VRB5      30.03F VSB 1/2
NEWBURGH       NOT AVBL
MONTGOMERY     CLOUDY    42  41  96 N5        30.03F FOG
POUGHKEEPSIE   CLOUDY    42  40  92 NE3       30.05F FOG
ALBANY         DRZL/FOG  37  35  92 NE5       30.07F VSB 1   WCI  33
$$

NJZ001-105-106-008-010-013-015-019>022-104-240900-
NEW JERSEY

CITY           SKY/WX    TMP DP  RH WIND       PRES   REMARKS
NEWARK/LIBERTY FOG       45  45 100 N6        30.05F VSB 3/4
TETERBORO      DRZL/FOG  45  45 100 CALM      30.05F VSB 1/2
CALDWELL       CLOUDY    44  44 100 NE5       30.05F FOG
MORRISTOWN     CLOUDY    46  45  93 CALM      30.05F FOG
SOMERVILLE     CLOUDY    46  44  93 CALM      30.04S FOG
SUSSEX         CLOUDY    42  41  96 NE5       30.04F
ANDOVER        NOT AVBL
TRENTON        FOG       45  44  97 E7        30.03S VSB 1
MILLVILLE      LGT RAIN  48  48 100 E6        30.01F FOG
ATLANTIC CITY  FOG       48  47  96 E8        30.03F VSB 3/4
WRIGHTSTOWN    CLOUDY    47  47 100 E6        30.02S
TOMS RIVER     CLOUDY    46  46 100 E6        30.04F VSB 1/2
BELMAR         CLOUDY    46  41  81 NE6       30.04R VSB 1/2
$$

PAZ047>061-062-071-240900-
EASTERN PENNSYLVANIA

CITY           SKY/WX    TMP DP  RH WIND       PRES   REMARKS
PHILADELPHIA   LGT RAIN  47  45  93 E5        30.04S VSB 1
ALLENTOWN      CLOUDY    44  42  93 NE5       30.03F FOG
SCRANTON       CLOUDY    47  42  83 E3        29.99F
$$

CTZ002-004>006-009-010-012-RIZ004-006-007-MAZ004-011-015-240900-
SOUTHERN NEW ENGLAND
 IN CT

CITY           SKY/WX    TMP DP  RH WIND       PRES   REMARKS
BRADLEY INTL   CLOUDY    41  38  89 N10       30.09F FOG
HARTFORD       CLOUDY    40  39  97 N9        30.10F FOG     WCI  34
DANBURY        CLOUDY    43  40  89 E5        30.07F FOG
WTRBRY/OXFORD  CLOUDY    43  37  81 NE7       30.06F
BRIDGEPORT     CLOUDY    46  44  93 NE7       30.06S
MERIDEN        CLOUDY    41  39  93 N8        30.09F FOG
NEW HAVEN      CLOUDY    46  41  82 N9        30.06F
CHESTER        CLOUDY    43  43 100 N6        30.08S FOG
GROTON         CLOUDY    47  47 100 NE6       30.07R
WILLIMANTIC    CLOUDY    43  41  93 N6        30.10F

 IN RI

CITY           SKY/WX    TMP DP  RH WIND       PRES   REMARKS
PROVIDENCE     CLOUDY    43  41  93 N12       30.09F FOG
BLOCK ISLAND   CLOUDY    46  45  93 NE9       30.07R VSB 3/4
WESTERLY       CLOUDY    48  47  96 N7        30.08R FOG

 IN MA

CITY           SKY/WX    TMP DP  RH WIND       PRES   REMARKS
BOSTON         LGT RAIN  42  41  96 N8        30.13S VSB 3/4
WORCESTER      FOG       36  36 100 NE9       30.10F VSB 3/4 WCI  29
WESTFIELD      CLOUDY    40  38  93 N7        30.11F FOG
PROVINCETOWN   CLOUDY    46  46 100 NE14      30.10S
NANTUCKET      CLOUDY    49  48  97 NE14      30.03F FOG
$$

ANZ330-335-338-340-345-350-353-355-240900-
COASTAL MARINE OBSERVATIONS


STATION/POSITION TIME  SKY/WX   TEMP    WIND        PRES    VSBY  WAVE
                                AIR SEA DIR/SP/G                  HT/PER
                 (UTC)          (F)     (DEG/KT/KT) (MB)    (MI)  (FT/S)
NY HARB ENTRANCE 0800            45 45   60/  8/  8 1018.2          6/ 8
4S FIRE IS       0800               47                N/A           5/ 8
20S FIRE ISLAND  0700            49 50              1018.2          6/ 8
23SW MTP         0800                                 N/A           7/ 8
HUDSON CANYON    0800            53 54   40/  6/  8 1017.0          7/ 8
EXECUTION ROCKS  0800            43 42   80/  6/  8   N/A
WESTERN LI SOUND 0800            44      60/  6/  8   N/A           1
CENTRAL LI SOUND 0700            43 44  360/  4/  6   N/A           1
EASTERN LI SOUND NOT AVBL
ROBBINS REEF     0800            45                 1016.3
$$


>>>>>>>>>>>>>>>>>>>>>>>>>>>> KEY <<<<<<<<<<<<<<<<<<<<<<<<<<<
>                                                          <
>     SKY/WX - SKY CONDITION/PRESENT WEATHER               <
>     TMP    - TEMPERATURE IN FAHRENHEIT                   <
>     DP     - DEWPOINT IN FAHRENHEIT                      <
>     RH     - RELATIVE HUMIDITY IN PERCENT                <
>     WIND   - DIRECTION AND SPEED IN MPH                  <
>     PRES   - MEAN SEA LEVEL PRESSURE IN INCHES OF HG     <
>     WCI    - WIND CHILL INDEX                            <
>     VSB    - VISIBILITY IN MILES                         <
>     HX     - HEAT INDEX                                  <
>     TC     - TEMPERATURE IN CELSIUS                      <
>     VRB    - VARIABLE WIND DIRECTION                     <
>                                                          <
>>>>>>>>>>>>>>>>>>>>>>>>>>>> KEY <<<<<<<<<<<<<<<<<<<<<<<<<<<





USA.gov is the U.S. government's official web portal to all federal, state and local government web resources and services.